Location: Star Camp Observatory
(34.2910°N, 116.3827°W)
Time: 03:23:12
(UTC-08:00)

Envisat - Pass Details

Date: 25 November 2019
Orbit: 764 x 766 km, 98.1° (Epoch: 10 December)

Event Time Altitude Azimuth Distance (km) Brightness Sun altitude
Rises 17:11:07 0° 145° (SE) 3,216 6.1 -7.4°
Reaches altitude 10° 17:13:33 10° 137° (SE) 2,293 5.2 -7.8°
Maximum altitude 17:18:10 37° 71° (ENE) 1,180 3.5 -8.7°
Drops below altitude 10° 17:22:48 10° 6° (N) 2,305 5.2 -9.6°
Sets 17:25:15 0° 358° (N) 3,234 6.1 -10.1°
